******** Week 146 almanac for PRN-1 ******** ID: 1 Health: 0 Eccentricity: 0.01131248474 Time of Applicability(s): 503808 Orbital Inclination(rad): 0.986489862 Rate of Right Ascen(r/s): -7.943188008e-09 SQRT(A) (m 1/2): 5153.626465 Right Ascen at Week(rad): -1.537559952 Argument of Perigee(rad): 0.8826261804 Mean Anom(rad): -1.749657888 Af0(s): 0.0003519659058 Af1(s/s): -1.091394e-11 week: 146 ******** Week 146 almanac for PRN-2 ******** ID: 2 Health: 0 Eccentricity: 0.02067995071 Time of Applicability(s): 503808 Orbital Inclination(rad): 0.9648343676 Rate of Right Ascen(r/s): -8.114623721e-09 SQRT(A) (m 1/2): 5153.633789 Right Ascen at Week(rad): -1.626500503 Argument of Perigee(rad): -1.450975425 Mean Anom(rad): -1.593389962 Af0(s): -0.0005132522095 Af1(s/s): 0 week: 146 ******** Week 146 almanac for PRN-3 ******** ID: 3 Health: 0 Eccentricity: 0.00385427475 Time of Applicability(s): 503808 Orbital Inclination(rad): 0.972582169 Rate of Right Ascen(r/s): -7.588887536e-09 SQRT(A) (m 1/2): 5153.649902 Right Ascen at Week(rad): -0.5020435244 Argument of Perigee(rad): 0.969401706 Mean Anom(rad): -2.912301101 Af0(s): -7.687478027e-05 Af1(s/s): -1.455192e-11 week: 146 ******** Week 146 almanac for PRN-4 ******** ID: 4 Health: 0 Eccentricity: 0.001677513123 Time of Applicability(s): 503808 Orbital Inclination(rad): 0.9612391002 Rate of Right Ascen(r/s): -7.806039438e-09 SQRT(A) (m 1/2): 5153.598633 Right Ascen at Week(rad): 0.5787616637 Argument of Perigee(rad): -3.089999818 Mean Anom(rad): 0.05939831274 Af0(s): -0.0001522422119 Af1(s/s): 3.637979e-12 week: 146 ******** Week 146 almanac for PRN-5 ******** ID: 5 Health: 0 Eccentricity: 0.00586605072 Time of Applicability(s): 503808 Orbital Inclination(rad): 0.9595553166 Rate of Right Ascen(r/s): -7.748894201e-09 SQRT(A) (m 1/2): 5153.612793 Right Ascen at Week(rad): -0.5421989171 Argument of Perigee(rad): 1.011659581 Mean Anom(rad): 0.9003441079 Af0(s): -5.50182251e-05 Af1(s/s): 0 week: 146 ******** Week 146 almanac for PRN-6 ******** ID: 6 Health: 0 Eccentricity: 0.00265455246 Time of Applicability(s): 503808 Orbital Inclination(rad): 0.9858726745 Rate of Right Ascen(r/s): -7.943188008e-09 SQRT(A) (m 1/2): 5153.614746 Right Ascen at Week(rad): -1.54583094 Argument of Perigee(rad): -0.9827599972 Mean Anom(rad): -1.396803358 Af0(s): 0.0001454591431 Af1(s/s): 1.091394e-11 week: 146 ******** Week 146 almanac for PRN-7 ******** ID: 7 Health: 0 Eccentricity: 0.01546907425 Time of Applicability(s): 503808 Orbital Inclination(rad): 0.9505491716 Rate of Right Ascen(r/s): -7.966046103e-09 SQRT(A) (m 1/2): 5153.634766 Right Ascen at Week(rad): 1.598026359 Argument of Perigee(rad): -2.29377166 Mean Anom(rad): -2.414548678 Af0(s): 0.0002419294556 Af1(s/s): 3.637979e-12 week: 146 ******** Week 146 almanac for PRN-8 ******** ID: 8 Health: 0 Eccentricity: 0.007214069366 Time of Applicability(s): 503808 Orbital Inclination(rad): 0.9651699259 Rate of Right Ascen(r/s): -8.068907531e-09 SQRT(A) (m 1/2): 5153.665527 Right Ascen at Week(rad): -2.617197427 Argument of Perigee(rad): 0.09058688356 Mean Anom(rad): 0.5350731718 Af0(s): -4.295943603e-05 Af1(s/s): 0 week: 146 ******** Week 146 almanac for PRN-9 ******** ID: 9 Health: 0 Eccentricity: 0.002308368683 Time of Applicability(s): 503808 Orbital Inclination(rad): 0.9542582892 Rate of Right Ascen(r/s): -7.874613723e-09 SQRT(A) (m 1/2): 5153.571289 Right Ascen at Week(rad): 0.5259584198 Argument of Perigee(rad): 1.866803687 Mean Anom(rad): 0.8768183254 Af0(s): -0.0002818741943 Af1(s/s): 0 week: 146 ******** Week 146 almanac for PRN-10 ******** ID: 10 Health: 0 Eccentricity: 0.00748872757 Time of Applicability(s): 503808 Orbital Inclination(rad): 0.9724143899 Rate of Right Ascen(r/s): -7.588887536e-09 SQRT(A) (m 1/2): 5153.638672 Right Ascen at Week(rad): -0.5048373469 Argument of Perigee(rad): -2.526342771 Mean Anom(rad): 2.514957758 Af0(s): -0.0002411757812 Af1(s/s): -1.091394e-11 week: 146 ******** Week 146 almanac for PRN-11 ******** ID: 11 Health: 255 Eccentricity: 0.0002908706665 Time of Applicability(s): 503808 Orbital Inclination(rad): 0.9616106111 Rate of Right Ascen(r/s): -8.160339911e-09 SQRT(A) (m 1/2): 5153.71582 Right Ascen at Week(rad): -1.493353517 Argument of Perigee(rad): 2.848718796 Mean Anom(rad): 0.4034612903 Af0(s): -7.084538574e-05 Af1(s/s): -4.001777e-11 week: 146 ******** Week 146 almanac for PRN-12 ******** ID: 12 Health: 0 Eccentricity: 0.00862455368 Time of Applicability(s): 503808 Orbital Inclination(rad): 0.97071263 Rate of Right Ascen(r/s): -7.611745631e-09 SQRT(A) (m 1/2): 5153.570801 Right Ascen at Week(rad): 2.710705466 Argument of Perigee(rad): 1.238875991 Mean Anom(rad): -3.07162463 Af0(s): -0.0001288783081 Af1(s/s): -7.275958e-12 week: 146 ******** Week 146 almanac for PRN-13 ******** ID: 13 Health: 0 Eccentricity: 0.005800247192 Time of Applicability(s): 503808 Orbital Inclination(rad): 0.9686333669 Rate of Right Ascen(r/s): -7.726036106e-09 SQRT(A) (m 1/2): 5153.616211 Right Ascen at Week(rad): 0.6784932599 Argument of Perigee(rad): 0.9671363129 Mean Anom(rad): -0.06266588656 Af0(s): 0.0001997236938 Af1(s/s): 7.275958e-12 week: 146 ******** Week 146 almanac for PRN-14 ******** ID: 14 Health: 0 Eccentricity: 0.001355171204 Time of Applicability(s): 503808 Orbital Inclination(rad): 0.9541024942 Rate of Right Ascen(r/s): -7.737465153e-09 SQRT(A) (m 1/2): 5153.602051 Right Ascen at Week(rad): 2.679705272 Argument of Perigee(rad): 3.035373473 Mean Anom(rad): -3.026929089 Af0(s): -6.104761963e-05 Af1(s/s): -3.637979e-12 week: 146 ******** Week 146 almanac for PRN-15 ******** ID: 15 Health: 0 Eccentricity: 0.01392126083 Time of Applicability(s): 503808 Orbital Inclination(rad): 0.9301699971 Rate of Right Ascen(r/s): -8.068907531e-09 SQRT(A) (m 1/2): 5153.666992 Right Ascen at Week(rad): 0.4204006177 Argument of Perigee(rad): 1.073057387 Mean Anom(rad): -0.4713635342 Af0(s): -6.933803711e-05 Af1(s/s): 3.637979e-12 week: 146 ******** Week 146 almanac for PRN-16 ******** ID: 16 Health: 0 Eccentricity: 0.01270532608 Time of Applicability(s): 503808 Orbital Inclination(rad): 0.9706766773 Rate of Right Ascen(r/s): -7.611745631e-09 SQRT(A) (m 1/2): 5153.554199 Right Ascen at Week(rad): 2.729327828 Argument of Perigee(rad): 0.7003581038 Mean Anom(rad): 1.356185449 Af0(s): -0.0003647783691 Af1(s/s): -3.637979e-12 week: 146 ******** Week 146 almanac for PRN-17 ******** ID: 17 Health: 0 Eccentricity: 0.01367044449 Time of Applicability(s): 503808 Orbital Inclination(rad): 0.9802221124 Rate of Right Ascen(r/s): -7.943188008e-09 SQRT(A) (m 1/2): 5153.70459 Right Ascen at Week(rad): -2.535587477 Argument of Perigee(rad): -1.502917303 Mean Anom(rad): 0.4398985772 Af0(s): 0.0004484362183 Af1(s/s): 3.637979e-12 week: 146 ******** Week 146 almanac for PRN-18 ******** ID: 18 Health: 0 Eccentricity: 0.002094745636 Time of Applicability(s): 503808 Orbital Inclination(rad): 0.9702811979 Rate of Right Ascen(r/s): -8.103194673e-09 SQRT(A) (m 1/2): 5153.577148 Right Ascen at Week(rad): -1.529475094 Argument of Perigee(rad): 3.10729268 Mean Anom(rad): -1.554928465 Af0(s): 0.0001989700195 Af1(s/s): -7.275958e-12 week: 146 ******** Week 146 almanac for PRN-19 ******** ID: 19 Health: 0 Eccentricity: 0.008952140808 Time of Applicability(s): 503808 Orbital Inclination(rad): 0.9789398004 Rate of Right Ascen(r/s): -7.988904198e-09 SQRT(A) (m 1/2): 5153.63623 Right Ascen at Week(rad): -2.490695694 Argument of Perigee(rad): 2.000093734 Mean Anom(rad): 2.846092378 Af0(s): 8.817989502e-05 Af1(s/s): 3.637979e-12 week: 146 ******** Week 146 almanac for PRN-20 ******** ID: 20 Health: 0 Eccentricity: 0.005249977112 Time of Applicability(s): 503808 Orbital Inclination(rad): 0.9416868372 Rate of Right Ascen(r/s): -7.954617056e-09 SQRT(A) (m 1/2): 5153.6875 Right Ascen at Week(rad): -0.6558842706 Argument of Perigee(rad): 3.118197201 Mean Anom(rad): -0.7102698068 Af0(s): 0.0004084914795 Af1(s/s): 0 week: 146 ******** Week 146 almanac for PRN-21 ******** ID: 21 Health: 0 Eccentricity: 0.02455186844 Time of Applicability(s): 503808 Orbital Inclination(rad): 0.9590879318 Rate of Right Ascen(r/s): -8.171768958e-09 SQRT(A) (m 1/2): 5153.539551 Right Ascen at Week(rad): -1.628019129 Argument of Perigee(rad): -1.017262955 Mean Anom(rad): 0.6115980655 Af0(s): 0.0001243562622 Af1(s/s): 0 week: 146 ******** Week 146 almanac for PRN-22 ******** ID: 22 Health: 255 Eccentricity: 0.01279211044 Time of Applicability(s): 503808 Orbital Inclination(rad): 0.9613649345 Rate of Right Ascen(r/s): -7.794610391e-09 SQRT(A) (m 1/2): 5153.59082 Right Ascen at Week(rad): 0.6270603372 Argument of Perigee(rad): -1.876142019 Mean Anom(rad): 0.3015530593 Af0(s): 0.000162039978 Af1(s/s): 7.275958e-12 week: 146 ******** Week 146 almanac for PRN-23 ******** ID: 23 Health: 0 Eccentricity: 0.001977443695 Time of Applicability(s): 503808 Orbital Inclination(rad): 0.9674409366 Rate of Right Ascen(r/s): -7.634603726e-09 SQRT(A) (m 1/2): 5153.658203 Right Ascen at Week(rad): -0.5295978791 Argument of Perigee(rad): 2.9434305 Mean Anom(rad): -2.440262705 Af0(s): 5.275720215e-06 Af1(s/s): -3.637979e-12 week: 146 ******** Week 146 almanac for PRN-24 ******** ID: 24 Health: 0 Eccentricity: 0.01231813431 Time of Applicability(s): 503808 Orbital Inclination(rad): 0.9340468939 Rate of Right Ascen(r/s): -8.137481816e-09 SQRT(A) (m 1/2): 5153.628906 Right Ascen at Week(rad): 1.515543433 Argument of Perigee(rad): 0.8041875558 Mean Anom(rad): -1.448082358 Af0(s): 0.0002185655518 Af1(s/s): 0 week: 146 ******** Week 146 almanac for PRN-25 ******** ID: 25 Health: 0 Eccentricity: 0.01043224335 Time of Applicability(s): 503808 Orbital Inclination(rad): 0.9580812569 Rate of Right Ascen(r/s): -7.714607058e-09 SQRT(A) (m 1/2): 5153.674316 Right Ascen at Week(rad): 2.63422439 Argument of Perigee(rad): 0.9737785696 Mean Anom(rad): 2.969837365 Af0(s): 0.0002193192261 Af1(s/s): 7.275958e-12 week: 146 ******** Week 146 almanac for PRN-26 ******** ID: 26 Health: 0 Eccentricity: 0.006838798523 Time of Applicability(s): 503808 Orbital Inclination(rad): 0.9389005049 Rate of Right Ascen(r/s): -7.886042771e-09 SQRT(A) (m 1/2): 5153.64209 Right Ascen at Week(rad): 2.587576918 Argument of Perigee(rad): 0.3564318212 Mean Anom(rad): 2.319914872 Af0(s): 0.0001409370972 Af1(s/s): 3.637979e-12 week: 146 ******** Week 146 almanac for PRN-27 ******** ID: 27 Health: 0 Eccentricity: 0.01012039185 Time of Applicability(s): 503808 Orbital Inclination(rad): 0.9738524969 Rate of Right Ascen(r/s): -8.000333246e-09 SQRT(A) (m 1/2): 5153.60498 Right Ascen at Week(rad): -2.597920427 Argument of Perigee(rad): 0.6328925351 Mean Anom(rad): 0.4758212913 Af0(s): 7.386008301e-05 Af1(s/s): 1.818989e-11 week: 146 ******** Week 146 almanac for PRN-29 ******** ID: 29 Health: 0 Eccentricity: 0.001791954041 Time of Applicability(s): 503808 Orbital Inclination(rad): 0.9822174859 Rate of Right Ascen(r/s): -7.954617056e-09 SQRT(A) (m 1/2): 5153.715332 Right Ascen at Week(rad): -2.522616801 Argument of Perigee(rad): 2.269135464 Mean Anom(rad): 0.5966065491 Af0(s): -0.0003738224609 Af1(s/s): -3.637979e-12 week: 146 ******** Week 146 almanac for PRN-30 ******** ID: 30 Health: 0 Eccentricity: 0.005446434021 Time of Applicability(s): 503808 Orbital Inclination(rad): 0.9357186932 Rate of Right Ascen(r/s): -8.126052768e-09 SQRT(A) (m 1/2): 5153.519043 Right Ascen at Week(rad): 1.611441201 Argument of Perigee(rad): -2.749814111 Mean Anom(rad): -2.389807246 Af0(s): -0.0004032157593 Af1(s/s): -3.637979e-12 week: 146 ******** Week 146 almanac for PRN-31 ******** ID: 31 Health: 0 Eccentricity: 0.01047039032 Time of Applicability(s): 503808 Orbital Inclination(rad): 0.9547855951 Rate of Right Ascen(r/s): -7.886042771e-09 SQRT(A) (m 1/2): 5153.618164 Right Ascen at Week(rad): 1.616057749 Argument of Perigee(rad): 0.3710859067 Mean Anom(rad): -2.866594391 Af0(s): -0.0001281246338 Af1(s/s): 0 week: 146 ******** Week 146 almanac for PRN-32 ******** ID: 32 Health: 0 Eccentricity: 0.005485057831 Time of Applicability(s): 503808 Orbital Inclination(rad): 0.9581172096 Rate of Right Ascen(r/s): -7.817468486e-09 SQRT(A) (m 1/2): 5153.708984 Right Ascen at Week(rad): 0.5370827765 Argument of Perigee(rad): -2.3677544 Mean Anom(rad): 1.143793525 Af0(s): -4.59741333e-05 Af1(s/s): -7.275958e-12 week: 146